This is the latest recevied weather packets stored in our database for station/object EA4BCR. If no packets are shown the sender has not sent any weather packets the latest 10 day(s).
| Time | Temp. | Humidity | Pressure | Rain* | Wind** | Luminosity | Snow |
|---|---|---|---|---|---|---|---|
| 1778109655 | 13.33° C | 81% | 1012 hPa | - | - | - | - |
| 1778109055 | 13.89° C | 75% | 1011.7 hPa | - | - | - | - |
| 1778108455 | 14.44° C | 75% | 1011.5 hPa | - | - | - | - |
| 1778107855 | 13.89° C | 77% | 1011.8 hPa | - | - | - | - |
| 1778107255 | 13.89° C | 77% | 1011.6 hPa | - | - | - | - |
| 1778106655 | 13.89° C | 78% | 1011.5 hPa | - | - | - | - |
| 1778106055 | 13.89° C | 75% | 1011.5 hPa | - | - | - | - |
| 1778105455 | 14.44° C | 74% | 1011.3 hPa | - | - | - | - |
| 1778104855 | 13.89° C | 76% | 1011.4 hPa | - | - | - | - |
| 1778104255 | 13.33° C | 81% | 1011.8 hPa | - | - | - | - |
| 1778103655 | 13.89° C | 73% | 1011.3 hPa | - | - | - | - |
| 1778103055 | 13.33° C | 72% | 1011.5 hPa | - | - | - | - |
| 1778102455 | 13.33° C | 61% | 1011.5 hPa | - | - | - | - |
| 1778101855 | 13.89° C | 59% | 1011.1 hPa | - | - | - | - |
| 1778101255 | 13.89° C | 57% | 1010.9 hPa | - | - | - | - |
| 1778100655 | 13.89° C | 60% | 1010.7 hPa | - | - | - | - |
| 1778100055 | 13.33° C | 60% | 1010.8 hPa | - | - | - | - |
| 1778099455 | 14.44° C | 52% | 1010.2 hPa | - | - | - | - |
| 1778098855 | 14.44° C | 52% | 1010 hPa | - | - | - | - |
| 1778098255 | 15° C | 53% | 1009.8 hPa | - | - | - | - |
| 1778097655 | 15° C | 53% | 1009.5 hPa | - | - | - | - |
| 1778097055 | 16.11° C | 49% | 1009.2 hPa | - | - | - | - |
| 1778096455 | 15.56° C | 51% | 1009.2 hPa | - | - | - | - |
| 1778095855 | 16.67° C | 45% | 1008.7 hPa | - | - | - | - |
| 1778095255 | 17.22° C | 44% | 1008.3 hPa | - | - | - | - |
* Rain since midnight (hover to see other rain measurements)
** Current wind speed in m/s (hover to see current wind gust speed)